sat.trackr.live / text

‹ back to catalog

STARLINK-5634

NORAD 55439 · 2023-014BA

PAYLOAD ACTIVE UNKNOWN

§ Identity

Operator
Country
US
Launch date
2023-01-31
Launch site
AFWTR
Launch vehicle
Mass (kg)
RCS (m²)

Purposes: comms

External: N2YO · Heavens-Above · Gunter

§ Orbital elements

Epoch: 2026-05-24T18:35:00.863520Z

Period
96.11 min
Inclination
69.9987°
Eccentricity
0.0002891
Mean motion
14.98331855 rev/d
Perigee alt
570.0 km
Apogee alt
574.1 km
Semi-major
6,950.2 km
B*
2.6712e-5
RAAN
272.6881°
Arg perigee
267.6866°
Mean anomaly
92.3962°
Rev number
18,246

§ Raw data

STARLINK-56341 55439U 23014BA  26144.77431555  .00000226  00000+0  26712-4 0  99912 55439  69.9987 272.6881 0002891 267.6866  92.3962 14.98331855182460

JSON: /api/v1/satellites/55439 · /tle

For live sub-satellite position, see the globe view (requires WebGL).

§ Visibility from observer

Set your observer location to see the next 7 days of passes ≥ 10°. The values pass through the URL so the page stays shareable.

No JS? Fill the form by hand. The geolocation button needs JavaScript.